Pagrindinis puslapis
METAR-TAF:

METAR-TAF

Oro uostai :

Lake Charles, Luiziana, Jungtinės Amerikos Valstijos

platuma: 30-13N, ilguma: 093-09W, Aukštis: 4 m

Dabartinis oras

Ataskaita buvo paskelbta 49 minutes, ne 21:50 UTC
Vėjas 16 kt iš Pietų su gūsio iki 21 kt
Temperatūra 28°C
Drėgmė 51%
Slėgis 1015 hPa
Matomumas: 16.1 km
Giedras dangus

METAR: KCWF 082150Z 18016G21KT 10SM SKC 28/17 A2997

Laikas: 17:39 (22:39 UTC)


TAF: trūkstamas

Orai ataskaitas ir orų prognozės (METAR, TAF).

turimą stotys yra geltonos ir raudonos taškus žemėlapyje.

Perkelti pele per norėdami pamatyti stoties vardą.

Tada spustelėkite, norėdami matyti oro stebėjimo ir prognozės.

Norėdami pakeisti žemėlapį: spustelėkite ant žalios mygtukų su juodo kryžiaus žemyn,; žalią mygtuką su brūkšneliu, jei norite nutolinti; arba žalių rodyklių gretimoms žemėlapius.


METAR-TAF: